Wind_Speed
23 23 23 24 24 24 22 22 22 22 22 23 22 22 22 22 22 22 21 20 20 20 19 19 18 18 18 17 17 16 16 15 15 14 14 13 13 13 13 13 12 12 12 11 11 11 11 10 11
24 24 25 25 25 23 22 22 22 22 23 24 23 23 23 23 23 22 22 21 21 21 21 21 20 20 19 19 19 18 18 18 17 17 16 16 15 15 15 15 15 14 14 14 13 13 12 12 12
25 26 26 26 25 23 23 22 23 22 23 23 24 24 23 23 23 23 22 22 22 22 22 22 21 21 21 20 20 20 20 19 19 19 19 18 18 17 17 17 17 16 16 16 15 15 15 14 14
26 26 27 26 25 24 24 24 24 24 23 23 23 23 23 23 24 24 23 23 22 22 23 22 22 22 22 22 22 22 21 21 21 21 20 20 20 20 19 19 19 19 18 17 17 17 17 17 16
26 26 26 25 24 25 25 25 25 25 24 24 24 23 23 23 24 24 24 24 24 23 24 24 24 24 24 23 23 23 23 23 23 22 22 22 22 22 21 21 21 20 20 20 19 19 19 18 18
26 26 26 25 25 25 26 25 25 25 25 25 25 24 23 23 23 24 24 24 25 25 24 24 25 25 24 24 24 24 24 24 24 24 24 24 23 23 23 22 22 22 22 21 21 20 21 20 20
26 26 26 25 25 26 27 26 26 26 26 26 26 25 24 24 24 24 25 25 25 25 25 25 25 25 25 25 25 25 25 25 25 25 25 25 25 24 24 24 24 23 23 23 22 22 22 22 22
25 26 25 24 25 26 27 27 27 27 27 27 27 26 25 25 25 25 26 26 26 26 26 26 26 26 26 26 26 26 26 26 26 26 26 26 26 26 26 26 25 25 25 25 24 24 24 24 24
24 24 23 23 25 26 26 27 27 28 28 28 28 27 26 26 26 26 27 27 27 27 27 27 27 27 27 28 28 28 27 27 27 27 27 27 28 28 27 27 27 27 27 27 26 26 26 26 26
25 23 22 23 25 25 25 26 27 28 28 29 29 29 29 28 28 28 28 28 28 28 28 28 29 29 29 29 29 29 29 29 29 29 29 29 29 29 30 29 29 29 29 29 29 28 28 28 28
26 25 25 25 25 25 25 26 26 27 27 28 29 30 30 29 29 29 29 29 29 30 30 30 30 31 31 31 31 31 32 32 32 32 32 31 32 32 32 32 32 32 32 32 32 31 30 30 30
28 27 28 28 27 27 26 27 27 27 26 28 29 29 30 30 30 30 30 30 31 32 32 32 32 32 32 33 33 34 34 34 34 34 34 34 34 34 34 34 34 34 34 34 34 34 33 33 33
29 29 29 29 29 29 28 28 28 27 27 29 29 29 30 30 30 30 31 31 32 33 33 34 34 34 34 35 35 36 36 37 37 37 36 37 36 36 36 36 36 36 37 37 37 36 36 36 36
31 30 30 30 30 30 30 30 30 27 30 30 30 31 31 31 31 31 32 32 33 33 34 34 35 35 36 36 37 38 38 39 39 39 39 39 39 38 38 38 38 39 39 39 39 39 39 39 38
33 32 32 31 31 31 32 32 30 30 32 32 32 32 32 32 32 32 32 33 33 34 35 36 36 36 37 37 38 39 40 41 41 41 41 41 41 41 41 41 41 41 41 41 41 41 41 41 40
34 34 33 32 33 33 34 32 31 32 33 33 33 33 32 32 32 32 33 34 34 35 36 37 37 37 37 38 39 39 40 41 42 43 43 43 43 43 43 43 44 44 44 44 44 44 43 44 43
36 35 34 34 34 35 35 33 32 33 34 33 33 33 33 33 32 33 34 35 36 36 37 38 38 38 38 39 40 40 40 41 43 44 45 45 45 45 46 46 47 47 47 46 46 46 46 46 46
37 37 36 35 36 36 37 35 34 35 34 34 34 34 34 34 34 35 35 36 36 37 37 38 39 39 40 41 41 42 42 43 44 45 45 46 46 47 48 48 49 49 49 49 49 49 49 49 49
39 38 37 37 37 37 37 37 36 36 35 34 34 35 35 35 35 36 36 36 36 37 38 38 39 40 41 42 42 43 43 44 44 45 46 47 47 48 49 49 50 51 51 51 51 51 51 52 52
40 40 39 38 38 39 39 38 37 37 36 36 36 36 36 36 35 36 37 37 36 36 37 38 39 39 40 42 43 43 44 44 45 46 47 48 48 48 49 49 51 52 53 53 53 54 54 54 54
41 40 40 41 40 41 41 40 39 38 38 37 37 37 37 37 37 38 38 37 37 37 38 39 40 41 42 42 43 43 43 44 45 45 46 48 48 49 50 50 51 53 54 55 56 56 56 56 56
42 41 41 42 42 42 42 43 39 39 39 39 38 38 38 38 39 39 39 39 39 39 40 40 41 42 42 43 43 43 44 44 45 46 46 48 49 50 52 52 53 54 55 57 58 58 58 58 57
43 43 43 43 45 45 43 44 41 39 39 39 40 40 39 39 40 40 40 39 40 40 41 41 41 42 43 43 43 44 45 45 45 46 47 48 49 51 53 53 54 54 56 57 58 59 59 59 60
45 44 45 45 46 48 45 45 44 41 39 39 40 41 41 41 41 41 41 40 40 41 41 42 42 42 43 44 44 44 45 45 47 48 49 50 51 52 53 54 55 56 57 57 58 59 60 61 61
45 45 46 47 48 49 46 47 46 43 41 41 41 41 42 42 41 41 41 42 42 42 42 42 42 42 43 44 45 45 45 46 48 49 50 51 52 53 53 54 55 56 57 57 58 59 60 61 62
45 45 45 47 48 48 48 48 46 45 43 43 43 42 42 42 42 42 42 42 43 43 43 43 43 43 44 45 45 46 46 47 48 50 51 52 53 53 54 54 55 56 57 57 58 59 60 60 60
43 44 44 46 48 49 50 49 47 44 44 44 44 44 43 43 43 43 43 42 43 43 43 43 44 44 45 45 45 46 46 48 49 51 52 52 53 53 54 55 56 56 57 58 58 58 58 58 58
44 43 43 45 47 49 50 49 47 45 44 43 44 44 44 43 43 43 43 43 42 43 43 43 44 45 45 45 45 46 47 48 49 50 51 52 53 54 55 56 56 57 57 57 58 57 57 57 57
43 44 45 46 48 48 49 47 45 44 44 43 44 44 43 43 43 43 43 43 43 43 43 43 43 44 44 45 45 46 47 48 48 49 50 51 52 53 54 55 55 56 56 56 56 56 55 55 56
43 43 44 45 47 49 49 47 44 44 44 43 43 43 43 43 43 43 43 42 42 42 42 43 43 44 45 45 45 46 47 48 48 50 50 51 52 52 53 54 54 54 54 54 55 55 55 54 55
Wind_Direction
240 240 240 241 242 242 244 244 244 244 244 246 246 247 248 250 250 251 250 249 249 249 250 251 252 253 255 256 257 258 259 260 260 261 263 265 267 269 270 272 274 275 277 281 283 284 279 277 281
241 241 241 242 243 244 244 245 245 245 245 245 246 247 248 249 250 251 251 249 249 249 250 251 252 253 254 255 256 258 258 259 260 261 262 263 265 267 268 270 272 273 274 276 278 280 280 278 279
242 242 242 243 244 245 246 245 246 245 245 246 247 248 249 250 251 251 252 251 250 250 250 251 252 252 254 255 256 257 259 259 260 261 262 262 263 265 266 267 269 271 272 273 275 277 278 277 277
243 243 243 244 244 245 245 245 246 246 246 247 248 249 250 251 251 251 251 252 252 251 251 251 252 253 254 255 256 257 258 259 259 260 261 262 263 264 265 266 268 269 270 272 272 274 276 276 277
244 243 244 244 244 244 245 245 246 246 247 248 249 250 250 251 251 252 252 252 252 252 251 251 251 252 253 254 255 256 257 258 258 260 261 262 263 264 265 266 267 268 268 269 270 270 273 275 275
245 244 244 244 244 244 245 246 246 247 247 248 249 250 251 251 252 252 252 252 252 253 253 253 252 253 254 254 255 256 258 258 258 259 261 262 263 264 265 265 266 266 267 267 268 268 270 272 273
246 246 246 245 245 245 245 246 247 248 248 249 250 250 251 252 252 253 253 253 253 253 253 253 254 254 255 256 256 256 257 259 259 260 261 262 263 263 264 265 265 266 267 268 268 268 269 270 271
247 247 247 246 246 246 247 247 248 249 249 250 250 250 251 252 252 253 253 253 254 254 254 254 255 256 256 257 258 257 258 258 259 261 261 262 262 263 263 264 265 266 267 269 269 269 270 270 270
248 247 246 246 246 246 247 247 248 248 249 249 250 251 250 251 253 254 253 254 255 256 256 255 255 256 256 257 258 258 259 260 261 261 262 262 263 263 264 264 265 266 267 268 269 270 271 271 271
248 248 247 247 247 247 247 247 247 247 248 249 250 251 251 252 252 253 253 254 255 256 257 257 258 257 256 257 258 259 260 261 262 262 262 263 264 265 265 265 265 266 266 267 268 269 270 271 272
248 249 247 248 248 248 247 247 248 248 248 249 250 251 252 253 253 254 254 255 257 258 259 259 260 260 259 258 259 259 260 261 262 263 263 264 264 265 265 265 265 265 266 267 267 268 269 270 271
249 249 248 248 249 249 248 248 248 249 249 249 250 251 252 253 254 255 256 257 258 259 259 259 260 261 262 261 260 260 261 261 262 262 263 264 265 265 266 266 265 266 267 267 267 267 268 270 271
249 249 249 249 249 250 249 249 249 250 250 251 252 252 253 254 255 256 258 259 260 260 259 260 261 262 262 263 262 262 262 263 262 262 263 264 264 265 265 265 266 266 266 266 267 267 268 269 270
250 250 249 249 250 250 249 248 249 250 251 251 252 254 255 256 258 259 260 261 262 262 261 261 262 263 263 264 264 264 263 263 263 263 263 264 264 264 264 265 266 266 267 267 267 267 267 268 269
251 251 250 249 250 250 250 249 250 250 251 253 254 255 257 258 260 261 261 262 263 263 262 262 263 263 264 265 266 266 264 263 262 262 263 263 264 264 264 265 266 266 267 267 268 267 267 268 268
251 251 250 250 250 250 250 250 250 250 252 253 254 255 257 259 261 262 263 264 265 265 264 264 263 264 265 266 266 266 266 264 263 263 263 263 264 265 265 265 266 267 267 267 267 267 268 268 268
251 252 251 250 250 251 251 251 250 251 252 253 254 255 257 260 262 264 265 265 266 267 266 265 265 265 265 266 267 266 266 266 265 264 264 264 264 264 265 266 267 267 267 267 268 267 267 268 268
252 252 251 251 251 251 252 252 251 251 251 252 254 256 258 260 262 264 265 267 268 268 269 267 267 266 267 268 267 267 268 268 267 265 265 265 265 265 266 267 267 268 267 267 267 268 268 268 268
252 251 251 251 251 252 252 251 251 251 251 252 254 257 258 260 263 265 267 269 270 270 270 269 268 268 268 268 268 268 268 269 268 267 266 266 267 267 267 267 267 268 268 267 267 267 268 268 268
251 251 252 252 252 253 253 252 251 252 253 253 255 258 259 261 263 265 268 269 270 271 272 272 270 270 270 270 270 269 269 269 269 269 268 268 268 269 268 267 268 268 268 268 268 268 268 268 268
250 252 252 253 254 255 256 253 251 252 253 254 256 258 260 262 263 266 268 270 272 273 274 274 272 271 271 271 270 270 270 270 270 270 270 269 269 269 270 269 269 268 268 268 268 268 268 268 268
250 251 253 254 254 255 256 256 251 253 254 255 256 258 261 263 264 266 268 270 272 274 275 275 274 272 272 272 271 272 272 272 272 272 271 271 271 271 271 271 270 271 270 269 270 269 268 269 268
250 251 253 254 255 256 256 258 255 254 255 257 258 259 261 263 264 266 268 271 273 274 275 275 275 275 273 272 272 272 273 273 273 273 272 272 272 272 272 271 271 271 272 272 272 271 270 270 269
250 251 253 254 256 257 257 259 258 256 257 259 260 261 262 263 265 266 268 271 273 274 275 275 276 276 274 273 272 273 274 274 275 275 274 273 273 273 273 273 272 272 273 274 274 273 272 271 270
250 251 253 255 256 259 259 259 260 261 261 261 261 261 263 264 265 267 269 271 272 274 274 274 275 275 275 274 274 274 275 276 276 276 276 276 275 274 275 275 275 275 275 275 275 275 273 272 270
250 251 253 256 259 260 260 260 261 263 264 264 264 263 264 265 266 267 269 271 273 274 274 275 275 275 276 276 275 275 276 277 278 277 277 278 278 277 276 276 276 276 276 275 276 275 274 273 271
249 250 253 256 258 261 261 261 261 264 265 266 266 265 265 265 266 268 269 271 273 274 275 275 275 275 276 276 275 276 277 278 279 279 278 278 278 277 277 277 277 277 276 276 277 275 274 273 271
250 251 252 253 257 260 261 262 263 263 265 266 267 267 266 266 266 268 270 271 272 274 275 275 275 276 276 276 276 278 279 280 280 279 280 279 279 279 278 278 278 277 277 277 276 276 275 273 271
250 251 252 254 256 258 262 262 263 264 266 267 267 267 267 267 267 268 270 272 272 273 274 274 275 275 276 277 278 279 280 281 281 281 282 282 281 281 281 280 279 278 277 276 275 275 274 273 272
250 251 252 254 256 257 261 262 263 265 266 267 266 265 265 266 267 269 270 272 272 273 274 274 275 276 277 278 279 280 280 281 282 283 284 284 283 283 282 281 280 279 278 277 275 274 274 274 273
Height
5806 5808 5810 5812 5814 5816 5818 5820 5821 5823 5824 5826 5827 5829 5831 5832 5834 5838 5838 5838 5839 5840 5842 5843 5844 5845 5846 5847 5848 5849 5849 5850 5851 5852 5853 5854 5854 5855 5856 5857 5857 5858 5858 5859 5859 5860 5860 5860 5860
5802 5804 5807 5808 5810 5812 5815 5816 5817 5819 5820 5822 5823 5825 5826 5828 5829 5831 5833 5834 5835 5837 5838 5839 5840 5841 5842 5843 5844 5845 5846 5847 5848 5849 5850 5851 5852 5853 5853 5854 5855 5855 5856 5857 5857 5857 5858 5858 5858
5798 5800 5802 5804 5806 5809 5811 5812 5813 5815 5816 5818 5819 5821 5823 5824 5825 5827 5828 5830 5831 5833 5834 5835 5836 5837 5839 5840 5841 5842 5843 5844 5845 5846 5847 5848 5849 5849 5850 5851 5852 5852 5853 5854 5854 5855 5855 5855 5855
5793 5795 5798 5800 5802 5805 5806 5808 5809 5810 5812 5814 5815 5817 5819 5820 5821 5823 5824 5826 5827 5829 5830 5831 5832 5834 5835 5836 5837 5838 5839 5840 5841 5842 5843 5844 5845 5846 5847 5848 5848 5849 5850 5850 5851 5851 5852 5852 5852
5788 5791 5793 5795 5798 5800 5801 5803 5804 5806 5808 5809 5811 5812 5814 5816 5817 5818 5820 5821 5823 5824 5825 5827 5828 5829 5830 5831 5832 5833 5835 5836 5837 5838 5839 5840 5841 5842 5843 5844 5844 5845 5846 5847 5847 5848 5848 5848 5848
5784 5786 5788 5791 5793 5794 5796 5797 5799 5801 5803 5804 5806 5808 5810 5811 5812 5814 5815 5817 5818 5819 5821 5822 5823 5824 5826 5827 5828 5829 5830 5831 5832 5833 5834 5835 5836 5837 5838 5839 5840 5841 5842 5842 5843 5844 5844 5844 5845
5780 5781 5783 5786 5788 5789 5791 5792 5794 5796 5798 5800 5801 5803 5805 5806 5808 5809 5810 5811 5813 5814 5816 5817 5818 5820 5821 5822 5823 5824 5825 5827 5827 5828 5830 5831 5832 5833 5834 5835 5835 5836 5837 5838 5838 5839 5840 5840 5840
5774 5777 5778 5781 5782 5784 5786 5787 5789 5791 5793 5794 5796 5798 5800 5802 5803 5804 5805 5806 5808 5809 5810 5812 5813 5815 5816 5817 5818 5819 5821 5822 5823 5823 5824 5825 5826 5828 5829 5830 5830 5831 5832 5833 5834 5834 5835 5835 5835
5769 5772 5773 5775 5777 5779 5780 5782 5784 5785 5787 5789 5791 5793 5795 5796 5798 5799 5800 5801 5803 5804 5805 5806 5808 5809 5810 5812 5813 5814 5815 5816 5817 5818 5819 5820 5821 5822 5823 5824 5825 5826 5827 5827 5828 5829 5829 5830 5830
5764 5766 5769 5770 5771 5773 5775 5776 5778 5780 5781 5783 5785 5787 5789 5791 5792 5793 5795 5796 5797 5798 5799 5800 5801 5803 5804 5805 5807 5808 5809 5810 5811 5812 5813 5814 5815 5816 5817 5818 5819 5820 5821 5821 5822 5823 5824 5824 5824
5758 5761 5763 5764 5765 5767 5769 5770 5772 5774 5776 5777 5779 5780 5782 5784 5786 5787 5788 5790 5791 5792 5793 5794 5795 5796 5797 5799 5800 5801 5803 5804 5805 5806 5807 5808 5809 5810 5810 5811 5813 5813 5814 5815 5816 5817 5817 5818 5818
5753 5755 5756 5758 5759 5761 5763 5765 5766 5768 5771 5771 5772 5774 5776 5778 5779 5780 5782 5783 5784 5785 5786 5787 5788 5789 5790 5791 5792 5794 5795 5796 5797 5798 5799 5800 5801 5802 5803 5804 5805 5806 5807 5808 5809 5809 5810 5811 5811
5746 5749 5750 5751 5753 5755 5757 5758 5760 5763 5764 5764 5766 5768 5769 5771 5772 5773 5775 5776 5777 5778 5779 5780 5780 5781 5782 5783 5784 5785 5787 5788 5789 5790 5791 5792 5793 5794 5795 5796 5797 5798 5799 5800 5801 5802 5802 5803 5804
5739 5741 5743 5745 5746 5748 5750 5752 5754 5758 5757 5758 5759 5761 5762 5764 5765 5766 5768 5769 5769 5770 5771 5772 5773 5773 5774 5775 5776 5777 5778 5779 5780 5781 5782 5783 5784 5786 5787 5788 5789 5790 5790 5791 5792 5793 5794 5795 5795
5732 5734 5736 5738 5739 5741 5743 5745 5748 5750 5749 5751 5752 5754 5755 5757 5758 5759 5760 5761 5761 5762 5762 5763 5764 5765 5765 5766 5767 5768 5768 5769 5770 5772 5773 5774 5775 5776 5777 5778 5779 5780 5781 5782 5783 5783 5784 5785 5786
5724 5726 5729 5732 5732 5734 5736 5739 5741 5741 5742 5744 5745 5747 5748 5749 5750 5751 5752 5752 5753 5753 5753 5754 5755 5755 5756 5757 5757 5758 5758 5759 5760 5761 5762 5764 5765 5766 5767 5768 5769 5770 5771 5772 5773 5773 5774 5775 5776
5716 5718 5721 5724 5725 5726 5727 5731 5733 5733 5734 5736 5737 5739 5740 5742 5743 5743 5743 5743 5744 5744 5744 5744 5745 5746 5747 5747 5748 5748 5748 5749 5750 5751 5752 5753 5754 5755 5756 5757 5759 5759 5760 5761 5762 5763 5763 5764 5765
5708 5710 5712 5715 5716 5717 5719 5722 5724 5725 5726 5728 5730 5731 5733 5734 5735 5734 5734 5734 5735 5735 5735 5735 5735 5736 5737 5737 5737 5738 5738 5738 5739 5740 5741 5742 5743 5744 5745 5746 5747 5747 5748 5749 5750 5751 5751 5752 5753
5699 5701 5703 5706 5707 5708 5710 5713 5715 5717 5719 5721 5722 5723 5724 5725 5726 5725 5726 5725 5725 5725 5725 5725 5725 5726 5726 5727 5727 5727 5727 5727 5728 5728 5729 5730 5731 5732 5733 5734 5734 5735 5735 5736 5737 5738 5739 5739 5740
5689 5691 5694 5696 5698 5699 5701 5704 5707 5708 5710 5712 5714 5715 5716 5717 5717 5717 5717 5716 5716 5716 5716 5715 5715 5715 5716 5716 5716 5716 5716 5717 5717 5717 5718 5719 5719 5720 5721 5721 5722 5722 5723 5723 5724 5725 5726 5726 5726
5679 5682 5685 5687 5688 5689 5691 5695 5698 5700 5702 5703 5705 5706 5707 5708 5708 5708 5708 5707 5707 5707 5706 5705 5705 5705 5705 5705 5705 5705 5706 5706 5706 5706 5706 5707 5707 5708 5708 5709 5709 5709 5709 5710 5710 5711 5711 5712 5713
5670 5673 5675 5677 5678 5680 5682 5683 5690 5691 5693 5695 5696 5697 5698 5698 5699 5699 5699 5699 5698 5697 5696 5695 5694 5694 5694 5694 5695 5695 5695 5696 5695 5695 5695 5695 5695 5695 5695 5695 5695 5695 5695 5696 5696 5696 5696 5697 5698
5660 5663 5665 5666 5667 5669 5672 5673 5679 5682 5684 5686 5687 5688 5688 5689 5689 5689 5689 5689 5688 5687 5686 5685 5684 5683 5683 5684 5684 5684 5685 5685 5684 5684 5684 5683 5683 5682 5682 5681 5681 5681 5681 5681 5681 5681 5681 5681 5681
5650 5653 5654 5655 5656 5658 5663 5664 5667 5672 5675 5676 5677 5678 5678 5678 5679 5679 5679 5679 5678 5677 5676 5675 5674 5673 5673 5673 5673 5674 5674 5673 5673 5672 5671 5671 5670 5669 5668 5667 5667 5666 5666 5665 5665 5665 5664 5664 5664
5639 5642 5643 5643 5645 5648 5652 5653 5658 5661 5664 5665 5666 5667 5667 5668 5668 5669 5669 5669 5668 5667 5666 5665 5664 5663 5663 5662 5663 5662 5662 5661 5661 5660 5658 5657 5656 5655 5654 5653 5652 5651 5651 5650 5649 5648 5648 5647 5647
5629 5631 5634 5635 5636 5638 5640 5642 5649 5651 5652 5653 5654 5656 5657 5657 5658 5658 5658 5658 5657 5656 5655 5655 5654 5653 5652 5652 5652 5651 5650 5649 5648 5647 5645 5644 5642 5641 5640 5638 5638 5636 5635 5634 5633 5632 5631 5630 5630
5618 5620 5623 5624 5623 5625 5627 5632 5637 5640 5640 5641 5642 5644 5645 5646 5647 5647 5647 5647 5646 5646 5645 5644 5643 5642 5642 5641 5640 5639 5638 5637 5635 5634 5632 5630 5628 5627 5626 5624 5623 5621 5620 5618 5617 5616 5615 5614 5614
5608 5611 5612 5612 5613 5614 5617 5621 5626 5628 5629 5630 5631 5631 5633 5634 5635 5636 5636 5636 5636 5635 5634 5633 5632 5632 5631 5630 5629 5628 5626 5625 5623 5621 5619 5617 5615 5613 5612 5610 5608 5606 5604 5602 5601 5600 5599 5598 5598
5598 5600 5601 5602 5603 5605 5606 5613 5615 5617 5618 5619 5619 5620 5621 5622 5623 5624 5625 5625 5624 5624 5623 5623 5622 5621 5620 5619 5617 5616 5615 5613 5610 5608 5606 5604 5602 5599 5597 5595 5592 5590 5588 5587 5585 5585 5584 5583 5583
5586 5589 5591 5592 5594 5594 5596 5604 5605 5607 5606 5607 5607 5608 5609 5611 5612 5613 5613 5614 5613 5613 5613 5612 5611 5610 5609 5608 5606 5605 5603 5601 5598 5596 5593 5590 5587 5585 5582 5579 5577 5575 5573 5571 5570 5569 5568 5568 5568